Showing default

YAM-12, 69003

Orbit data source: Space-Track

YAM-12, 69003 is an American payload satellite in SSO that was launched on Sun, 03 May 2026 UTC via an FALCON 9 launch vehicle from the Air Force Western Test Range (AFWTR). Payload-class satellites include a variety of spacecraft equipped with specific instruments for various scientific and technological missions. These include communications satellites like Starlink; space stations such as the ISS; scientific satellites like the Hubble; Earth observation satellites from companies like Planet Labs, Umbra, and HawkEye 360; GPS; miniature CubeSats for education and research; and military/defense satellites.

Loading next visibility...
Identifier
69003, 2026-100Z
Orbit
SSO
Country
Flag of USUS
Related business
Manufacturer
Airbus/Toulouse
Mission
Operational Commercial Imaging
Bus & Motor
ARROW, Unknown motor
Mass
~150 kg wet, ~140 kg dry
Launch date (UTC)
2026-05-03 (4 months ago)
Launch vehicle
FALCON 9
Launch site
Air Force Western Test Range (AFWTR)
Object type
Payload
Rocket body
Debris
Shape & HBR
Trap Box + 2 Pan, 2.3 m
Radar Cross Section
2.032 m², Large (>1 m²)

Expand to show TLE details & history
Last TLE update: 18 hours ago

TLE from 18 hours ago
0 YAM-12
1 69003U 26100Z   26237.51954694  .00001242  00000-0  13301-3 0  9990
2 69003  97.7791 133.6830 0001650  79.1449 280.9955 14.90459089 17016
Epoch: 2026-08-25T12:28Z
TLE epoch observation values (Epoch: 2026-08-25T12:28:08.855Z)
Latitude
0.00001°
Longitude
-27.13963°
Altitude
599.323 km
Speed
7.56 km/s
True Right ascension
08h 54m 43s
True Declination
0° 00' 00"
Sunlit
Object was in daylight at epoch
Visualization orbit readout
Latitude
Unknown
Longitude
Unknown
Altitude
Unknown
Speed
Unknown
Apparent Right ascension
Unknown
Apparent Declination
Unknown
Sunlit
N/A
Visualization observer readout
Local Sidereal Time
21:34:25
Azimuth
Unknown
Elevation
Unknown
Doppler factor
Unknown
Orbital elements
Apogee altitude
594.675 km
Perigee altitude
592.374 km
Semi-major axis
6,971.662 km
Eccentricity
0.00017
Inclination
97.7791°
RAAN
133.683°
Arg. of periapsis
79.1449°
True anomaly
280.97694°
Mean anomaly
280.9955°
Eccentric anomaly
280.98622°
Mean motion
3.72854 °/min
Orbital period
96.55 mins
BSTAR
0.00013301
Loading maneuver chart data...
Computing Atmospheric mass density...
Loading historical data...
Loading historical data...
Loading historical data...
Loading historical data...
Loading historical data...
Loading historical data...
Loading historical data...

Documentation

Showing up to 5 results
|